Location: Choisy
(48.7685°N, 2.4187°E)
Time: 14:39:18
(UTC+00:00)

Tiangong - Visible Passes

Search period start: 27 February 2024 00:00
Search period end: 08 March 2024 00:00
Orbit: 375 x 385 km, 41.5° (Epoch: 26 February)

Date Brightness Start Highest point End Pass type
(mag) Time Alt. Az. Time Alt. Az. Time Alt. Az.
29 Feb 0.2 18:49:47 10° S 18:50:53 11° SSE 18:51:09 11° SSE visible
01 Mar 0.0 19:23:37 10° SW 19:25:05 17° S 19:25:05 17° S visible
02 Mar 0.1 18:22:53 10° SSW 18:24:44 15° SSE 18:26:36 10° SE visible
02 Mar 0.7 19:58:24 10° SW 19:58:53 13° SW 19:58:53 13° SW visible
03 Mar -0.4 18:57:12 10° SW 18:59:36 20° S 19:00:28 18° SSE visible
04 Mar -0.2 19:32:02 10° SW 19:34:02 20° SSW 19:34:02 20° SSW visible
05 Mar -0.3 18:30:36 10° SW 18:33:02 21° S 18:35:26 10° SE visible
05 Mar 0.9 20:07:17 10° SW 20:07:32 11° SW 20:07:32 11° SW visible
06 Mar -0.1 19:05:28 10° WSW 19:07:42 18° S 19:08:52 15° SSE visible
07 Mar 0.6 19:41:06 10° SW 19:42:12 11° SSW 19:42:16 11° SSW visible
